TimePST,TemperatureF,Dew PointF,Humidity,Sea Level PressureIn,VisibilityMPH,Wind Direction,Wind SpeedMPH,Gust SpeedMPH,PrecipitationIn,Events,Conditions,WindDirDegrees,DateUTC
12:05 AM,34.0,33.1,96,30.28,1.0,North,-9999.0,-,N/A,,Overcast,0,2013-01-18 08:05:00
12:28 AM,35.1,33.1,92,30.28,1.2,North,-9999.0,-,N/A,,Overcast,0,2013-01-18 08:28:00
12:50 AM,37.4,35.6,93,30.27,0.5,North,-9999.0,-,N/A,Fog,Fog,0,2013-01-18 08:50:00
12:53 AM,37.0,35.1,93,30.28,0.5,North,-9999.0,-,N/A,Fog,Fog,0,2013-01-18 08:53:00
1:53 AM,35.1,34.0,96,30.29,0.5,North,-9999.0,-,N/A,Fog,Fog,0,2013-01-18 09:53:00
2:19 AM,35.1,34.0,96,30.28,2.0,North,-9999.0,-,N/A,,Overcast,0,2013-01-18 10:19:00
2:26 AM,35.1,34.0,96,30.29,7.0,North,-9999.0,-,N/A,,Overcast,0,2013-01-18 10:26:00
2:53 AM,35.1,34.0,96,30.29,3.0,North,-9999.0,-,N/A,,Overcast,0,2013-01-18 10:53:00
3:47 AM,35.6,35.6,100,30.26,2.5,North,-9999.0,-,N/A,,Overcast,0,2013-01-18 11:47:00
3:53 AM,35.1,34.0,96,30.27,1.8,North,-9999.0,-,N/A,,Overcast,0,2013-01-18 11:53:00
4:08 AM,35.1,34.0,96,30.26,0.5,North,-9999.0,-,N/A,Fog,Fog,0,2013-01-18 12:08:00
4:29 AM,35.1,34.0,96,30.26,1.0,North,-9999.0,-,N/A,,Overcast,0,2013-01-18 12:29:00
4:41 AM,35.1,34.0,96,30.27,3.0,North,-9999.0,-,N/A,,Overcast,0,2013-01-18 12:41:00
4:53 AM,35.1,34.0,96,30.29,8.0,North,-9999.0,-,N/A,,Overcast,0,2013-01-18 12:53:00
5:53 AM,36.0,35.1,97,30.28,8.0,North,-9999.0,-,N/A,,Overcast,0,2013-01-18 13:53:00
6:53 AM,35.1,33.1,92,30.26,7.0,SW,5.8,-,N/A,,Overcast,220,2013-01-18 14:53:00
7:50 AM,35.6,33.8,93,30.27,10.0,SSW,6.9,-,N/A,,Overcast,200,2013-01-18 15:50:00
7:53 AM,36.0,34.0,93,30.28,10.0,South,6.9,-,N/A,,Overcast,190,2013-01-18 15:53:00
8:53 AM,37.0,34.0,89,30.30,10.0,South,5.8,-,N/A,,Overcast,190,2013-01-18 16:53:00
9:53 AM,37.9,36.0,93,30.31,10.0,SSE,3.5,-,N/A,,Overcast,150,2013-01-18 17:53:00
10:53 AM,37.9,36.0,93,30.31,10.0,SSE,5.8,-,N/A,,Overcast,160,2013-01-18 18:53:00
11:53 AM,39.0,36.0,89,30.32,10.0,SE,6.9,-,N/A,,Overcast,140,2013-01-18 19:53:00
12:53 PM,39.0,36.0,89,30.32,10.0,SE,6.9,-,N/A,,Overcast,140,2013-01-18 20:53:00
1:53 PM,39.9,36.0,86,30.30,10.0,East,6.9,-,N/A,,Overcast,100,2013-01-18 21:53:00
2:53 PM,39.9,36.0,86,30.31,10.0,SE,6.9,-,N/A,,Overcast,140,2013-01-18 22:53:00
3:53 PM,39.0,36.0,89,30.32,10.0,SE,3.5,-,N/A,,Overcast,130,2013-01-18 23:53:00
4:53 PM,37.9,35.1,89,30.32,10.0,SE,5.8,-,N/A,,Overcast,130,2013-01-19 00:53:00
5:53 PM,37.9,35.1,89,30.32,10.0,SSE,4.6,-,N/A,,Overcast,150,2013-01-19 01:53:00
6:53 PM,37.9,35.1,89,30.31,10.0,SE,5.8,-,N/A,,Overcast,140,2013-01-19 02:53:00
7:53 PM,37.0,35.1,93,30.32,10.0,SSE,6.9,-,N/A,,Overcast,150,2013-01-19 03:53:00
8:53 PM,37.0,34.0,89,30.33,10.0,SSE,8.1,-,N/A,,Overcast,150,2013-01-19 04:53:00
9:53 PM,37.9,34.0,86,30.34,10.0,SSE,8.1,-,N/A,,Overcast,160,2013-01-19 05:53:00
10:53 PM,37.9,34.0,86,30.34,10.0,SSE,5.8,-,N/A,,Overcast,150,2013-01-19 06:53:00
11:15 PM,37.9,34.0,86,30.34,10.0,SE,8.1,-,N/A,,Overcast,140,2013-01-19 07:15:00
11:53 PM,37.9,34.0,86,30.35,10.0,SE,6.9,-,N/A,,Overcast,140,2013-01-19 07:53:00